Weather in Nakuru

Kenya     0°14′13″N   36°08′27″E
temp.,
°C
wind,
m/s
gust,
m/s
humid.,
%
clouds,
%
prec.,
mm/h
press.,
hPa
HPBL,
m
10 august, wed
wed1000:00+12se1392100 0.4 101893
03:00+12se2391100 0.4 101681
06:00+10se269598 0.0 1018157
09:00+14sse3581100 0.0 1018381
12:00+19s2256100 0.1 10151278
15:00+18ssw456893 0.7 1013668
18:00+15sse2777100 0.4 1014213
21:00+12sse1184100 0.4 101716
11 august, thu
thu1100:00+11sse248784 0.0 1017102
03:00+10se2693100 0.0 1017171
06:00+9se2595100 0.0 1018114
09:00+14sse4776100 0.0 1018449
12:00+19sse445694 0.0 10151104
15:00+18s4460100 0.1 10131065
18:00+16sse4868100 0.3 1014419
21:00+14ssw1572100 0.3 1016216
12 august, fri
fri1200:00+10ssw019298 0.0 101810
03:00+9se2295100 0.0 101747
06:00+9ese129696 0.0 101827
09:00+14sse467721 0.0 1018491
12:00+18sse5462100 0.0 10161080
15:00+19s5458100 0.3 10121267
18:00+15se267192 0.3 1014232
21:00+13nne107528 0.3 101610
13 august, sat
sat1300:00+10nne119199 0.0 101810
03:00+9e119468 0.0 101724
06:00+11ese119190 0.0 101745
09:00+14ssw227999 0.1 1018436
12:00+20ssw245474 0.1 10141483
15:00+17ssw357299 1.1 1012472
18:00+14sse248199 1.4 1014101
21:00+12nne2393100 3.8 101774
14 august, sun
sun1400:00+12n1190100 1.8 101712
03:00+12e119069 1.9 101610
06:00+11ene018979 0.0 101610
09:00+15ssw117753 0.0 1017345
12:00+21sw235042 0.0 10141664
15:00+17wnw3575100 1.3 1012309
18:00+14n3587100 2.9 1014102
21:00+13ene1186100 3.5 101611